BREEZE-M R/B, 42943

Orbit data source: Space-Track

BREEZE-M R/B, 42943 is space debris in HEO originally from a launch on Thu, 28 Sep 2017 UTC launched from the Tyuratam Missile And Space Complex (TTMTR). Debris objects in space refer to the collection of defunct objects orbiting the Earth. Examples of debris include non-operational satellites, rocket bodies, and fragments generated from explosions, collisions, or faulty payload assembly.

Loading next visibility...
Identifier
42943, 2017-057B
Orbit
HEO
Country
Flag of CISCIS
Related business
Manufacturer
Khrunichev
Mission
Spacecraft
Bus & Motor
BRIZ, Unknown motor
Mass
~1,600 kg wet, 1,600 kg dry
Launch date (UTC)
2017-09-28 (9 years ago)
Launch vehicle
Unknown
Launch site
Tyuratam Missile And Space Complex (TTMTR)
Object type
Payload
Rocket body
Debris
Shape & HBR
Cyl, 2.0 m
Radar Cross Section
15.135 m², Large (>1 m²)

Expand to show TLE details & history
Last TLE update: 3 days ago

TLE from 3 days ago
0 BREEZE-M R/B
1 42943U 17057B   26170.79533442 -.00000087  00000-0  00000-0 0  9991
2 42943  23.6811  61.7331 6082071 319.7913   8.3694  2.14920949 68489
Epoch: 2026-06-19T19:05Z
TLE epoch observation values (Epoch: 2026-06-19T19:05:16.893Z)
Latitude
0.00045°
Longitude
-132.62546°
Altitude
4,554.684 km
Speed
7.563 km/s
True Right ascension
04h 06m 51s
True Declination
0° 00' 02"
Sunlit
Object was in daylight at epoch
Visualization orbit readout
Latitude
Unknown
Longitude
Unknown
Altitude
Unknown
Speed
Unknown
Apparent Right ascension
Unknown
Apparent Declination
Unknown
Sunlit
N/A
Visualization observer readout
Local Sidereal Time
21:27:48
Azimuth
Unknown
Elevation
Unknown
Doppler factor
Unknown
Orbital elements
Apogee altitude
34,416.522 km
Perigee altitude
3,560.296 km
Semi-major axis
25,366.546 km
Eccentricity
0.60821
Inclination
23.6811°
RAAN
61.7331°
Arg. of periapsis
319.7913°
True anomaly
40.55581°
Mean anomaly
8.3694°
Eccentric anomaly
20.67027°
Mean motion
0.53722 °/min
Orbital period
670.12 mins
BSTAR
0
Loading maneuver chart data...
Computing Atmospheric mass density...
Loading historical data...
Loading historical data...
Loading historical data...
Loading historical data...
Loading historical data...
Loading historical data...
Loading historical data...
Other satellites on launch #57 in the year 2017 (2017-09-28 UTC)

Documentation

Showing up to 5 results
|